Regional Weather Roundup
Issued by NWS Bismarck, ND

Home | Current Version | Previous Version | Text Only | Print | Product List | Glossary On
Versions: 1 2 3 4 5 6 7 8 9 10 11 12 13 14 15 16 17 18 19 20 21 22 23 24 25 26 27 28 29 30 31 32 33 34 35 36 37 38 39 40 41 42 43 44 45 46 47 48 49 50
000
ASUS43 KBIS 262310
RWRBIS

NWR BROADCAST TEXT
NATIONAL WEATHER SERVICE BISMARCK ND
500 PM CST SUN FEB 26 2017

NOTE: "FAIR" INDICATES FEW OR NO CLOUDS BELOW 12,000 FEET WITH NO
SIGNIFICANT WEATHER AND/OR OBSTRUCTIONS TO VISIBILITY.


CITY           SKY/WX    TMP DP  RH WIND       PRES   REMARKS
WILLISTON      PTSUNNY   23  14  68 W9        29.79R WCI  13
MINOT          FAIR      21   9  59 SW9       29.78R WCI  11
MINOT AFB      FAIR      19  11  71 SW8       29.78R WCI   9
BISMARCK       FAIR      21  15  78 E9        29.81R WCI  11
DICKINSON      CLOUDY    26  17  68 N13       29.72R WCI  15
GARRISON         N/A     20  13  74 SW5       29.79R WCI  13
HETTINGER ARPT CLOUDY    33  20  58 W21G30    29.73R
JAMESTOWN      FLURRIES  21  15  78 SW7       29.82R WCI  12
CARRINGTON     CLOUDY    18  12  79 CALM      29.83S
HAZEN          CLOUDY   N/A N/A N/A CALM      29.82R
MANDAN         MOCLDY    19  16  86 E9        29.79R WCI   9
RUGBY            N/A     10   9  92 SW7       29.80R WCI   0
STANLEY        FAIR      19  14  79 W9        29.77S WCI   9
TIOGA          FAIR      19  16  86 W9        29.77S WCI   9
WATFORD CITY   FAIR      23  14  68 NW8       29.79R WCI  14
$$

CITY           SKY/WX    TMP DP  RH WIND       PRES   REMARKS
GRAND FORKS    FAIR      18   4  54 SW10      29.87R WCI   6
GRAND FORKS AF FAIR      18   7  62 SW8       29.87R WCI   8
DEVILS LAKE    FAIR      13   8  81 SW8       29.83R WCI   2
FARGO          CLOUDY    19   9  65 CALM      29.90R
CAVALIER         N/A     18   9  68 SW9       29.83R WCI   6
GRAFTON        FAIR      18  10  73 SW10      29.87R WCI   6
GWINNER        CLOUDY    25  18  74 SE5       29.86F WCI  19
ROLLA          FAIR      16   9  73 SW14      29.76S WCI   1
$$

CITY           SKY/WX    TMP DP  RH WIND       PRES   REMARKS
ABERDEEN       CLOUDY    31  19  61 E9        29.81F
MOBRIDGE       CLOUDY    38  22  52 NW6       29.74R
BUFFALO          N/A     34  18  52 NW21      29.65S
RAPID CITY     FAIR      38  14  37 NE7       29.75S
GLASGOW        CLOUDY    24  13  62 N13       29.79R WCI  12
SIDNEY         FAIR      27  16  63 NW14      29.80R WCI  16
WOLF POINT     PTSUNNY   27  16  63 NW8       29.80R WCI  19
GLENDIVE       FLURRIES  26  18  71 NW12      29.79R WCI  16
MILES CITY     FAIR      33  16  49 N15       29.76R
BAKER          CLOUDY    27  20  75 N15       29.75R WCI  15
$$

CITY           SKY/WX    TMP DP  RH WIND       PRES   REMARKS
BILLINGS       PTSUNNY   34  14  43 N5        29.66F
GREAT FALLS    CLOUDY    21  13  71 N12       29.73S WCI   9
REGINA         FLURRIES  21  16  79 NW10      29.73S WCI  10
ESTEVAN        PTSUNNY   19  12  73 NW9       29.76R WCI   9
$$




USA.gov is the U.S. government's official web portal to all federal, state and local government web resources and services.